Terug naar catalogus

STARLINK-32085

ActiefCommunicatieVLEO
NORAD 59685·PAYLOAD·🇺🇸 United States

Gelanceerd May 8, 2024 vanaf Cape Canaveral Space Force Station

Loading…

Volgende Passages (komende 24 uur)

TLE

VersSource: CelesTrak SupGP

Epoch: Sep 15, 2026, 02:14 UTC

1 59685C 24086D   26258.09354167 -.00010622  00000+0 -38469-3 0  2584
2 59685  43.0029  70.2648 0001437 269.2472 275.4395 15.27588195    14

Volg STARLINK-32085 in realtime met AllMySat

Download on the App Store